星链-31907 (STARLINK-31907 )

导读 | 豆包AI

STARLINK-31907是美国SpaceX公司星链(Starlink)互联网星座项目中的一颗低轨通信卫星,于2024年5月18日发射入轨。它属于星链第二代mini卫星平台,运行在近地轨道,配备先进通信设备,旨在通过大规模组网为全球提供高速低延迟宽带互联网服务,可支持偏远地区覆盖、商业航运航空通信等应用,是星链全球星座部署的组成部分,同时星链项目也因太空碎片、轨道安全等问题引发广泛争议。

基本信息
目录编号:
59797
目录名称:
STARLINK-31907
国际标识:
2024-093R
轨道中心:
EARTH
卫星名称:
星链-31907
卫星全名:
星链-31907 (STARLINK-31907 )
卫星状态:
在轨 (已飞行713 天)
发射日期:
2024-05-18 UTC
国别 :
美国 (US)
星等 :
--
轨道信息
数据来源 国际轨道数据
星历时间: 2026-04-30T19:12:34+0800
15小时前
查看轨道信息
半长轴: 6861.172km
偏心率: 0.0000979
轨道倾角: 43.000°
近地点辐角 286.102°
升交点赤经 276.520°
平近点角 73.973°
近地点: 482.363km
远地点: 483.707km
周期: 94.266分钟
每日圈数: 15.27585
详细信息
固有亮度:
5
最大亮度:
1.5
卫星平台:
Starlink v2.0 mini
覆盖范围:
全球
运营商:
太空探索技术公司
运营商所在国:
美国
制造商(研发单位):
太空探索技术公司
制造商所在国:
美国
使用方式:
暂无
卫星简介
星链(Starlink)计划是由太空探索技术公司(SpaceX)提出的一个巨型低轨卫星互联网星座项目,计划在2019年至2024年间在太空搭建由约1.2万颗卫星组成的“星链”网络,其中1584颗将部署在地球上空550千米处的近地轨道,并从2020年开始工作。该卫星仍在工作。
2D轨道图
3D轨道图
轨道高度分析图
轨道倾角分析图
轨道综合分析图
查看轨道综合分析图